PROBA-1 1 26958U 01049B 25348.28891862 .00004307 00000+0 28603-3 0 9995 2 26958 97.9588 345.5044 0056852 29.0981 331.3393 15.06463903315773 CUTE-1 (CO-55) 1 27844U 03031E 25348.27613775 .00000507 00000+0 23886-3 0 9993 2 27844 98.6765 354.1593 0009710 9.0596 351.0757 14.24180797165355 CUBESAT XI-IV (CO-57) 1 27848U 03031J 25347.96224071 .00000433 00000+0 20957-3 0 9993 2 27848 98.6792 353.7104 0009935 27.4415 332.7286 14.23488271165029 APRIZESAT 4 1 35684U 09041D 25348.13568005 .00001401 00000+0 17466-3 0 9992 2 35684 98.1642 54.6315 0043137 200.0620 159.8899 14.83496812883925 APRIZESAT 3 1 35686U 09041F 25348.34551372 .00002916 00000+0 26001-3 0 9993 2 35686 98.1788 128.1224 0061608 318.3449 41.3087 14.95429103888740 PROBA-2 1 36037U 09059B 25348.29452868 .00000480 00000+0 12262-3 0 9995 2 36037 98.2372 169.2529 0014057 128.7251 231.5205 14.54713078854644 APRIZESAT 5 1 37792U 11044E 25348.27208113 .00001689 00000+0 22299-3 0 9994 2 37792 98.2355 271.2571 0051459 237.4072 122.2165 14.80579418771423 APRIZESAT 6 1 37793U 11044F 25348.32175351 .00001463 00000+0 21478-3 0 9996 2 37793 98.2459 249.9804 0042627 318.8105 185.7005 14.76540273769862 PROBA-V 1 39159U 13021A 25348.19704235 .00000137 00000+0 78199-4 0 9995 2 39159 98.3392 331.1517 0003484 329.2222 30.8753 14.23548026654797 APRIZESAT 7 1 39416U 13066A 25348.29930236 .00002179 00000+0 22365-3 0 9994 2 39416 97.7469 299.5349 0037864 103.5240 257.0201 14.90909590653671 APRIZESAT 8 1 39425U 13066K 25348.27784181 .00001623 00000+0 18342-3 0 9991 2 39425 97.8005 293.6490 0046484 172.4884 187.7039 14.87117539652180 BUGSAT-1 (TITA) 1 40014U 14033E 25348.30852037 .00007876 00000+0 44116-3 0 9996 2 40014 98.0561 65.2943 0030595 91.5259 268.9475 15.13319126627853 SAUDISAT 4 1 40016U 14033G 25348.33422904 .00001137 00000+0 15777-3 0 9992 2 40016 97.7298 136.2165 0044141 316.4004 43.3723 14.79173293618745 APRIZESAT 9 1 40018U 14033J 25348.30134482 .00001021 00000+0 15783-3 0 9991 2 40018 97.8791 121.3765 0067849 75.1146 285.7564 14.73890082616326 APRIZESAT 10 1 40019U 14033K 25348.34891414 .00001173 00000+0 19173-3 0 9996 2 40019 97.9409 114.7675 0079970 143.3544 217.3170 14.70600364615083 TECHDEMOSAT-1 (TDS-1) 1 40076U 14037H 25348.33591735 .00011755 00000+0 73667-3 0 9990 2 40076 98.3668 317.9329 0007126 157.9466 202.2069 15.09512733620305 TECHNOSAT 1 42829U 17042E 25348.32581899 .00004870 00000+0 36083-3 0 9997 2 42829 97.4046 148.4631 0018345 8.5948 351.5589 15.03431581458913 FLYING LAPTOP 1 42831U 17042G 25348.33642962 .00004608 00000+0 37490-3 0 9992 2 42831 97.4236 146.8836 0014958 44.2388 316.0029 14.99926113458736 HAWK-A 1 43765U 18099H 25348.10083140 .00010292 00000+0 45067-3 0 9999 2 43765 97.4216 37.8313 0036347 214.0221 145.8685 15.21613615384920 HAWK-B 1 43794U 18099AN 25348.11251850 .00007897 00000+0 36384-3 0 9996 2 43794 97.4262 37.6134 0032825 230.5015 129.3316 15.20069627384894 HAWK-C 1 43799U 18099AT 25348.13652414 .00010167 00000+0 40521-3 0 9996 2 43799 97.4197 37.9409 0042832 217.4923 142.3326 15.24545955385686 SALSAT 1 46495U 20068K 25347.97394729 .00010073 00000+0 39011-3 0 9992 2 46495 97.8786 335.3129 0008978 224.0796 135.9726 15.26353387287073 HAWK-2C 1 47502U 21006CT 25348.07394718 .00009225 00000+0 30349-3 0 9997 2 47502 97.2566 31.1497 0008451 135.6915 224.5005 15.31700998271133 HAWK-2A 1 47505U 21006CW 25348.07704788 .00009523 00000+0 31327-3 0 9990 2 47505 97.2613 31.7215 0007903 138.7906 221.3934 15.31698101271136 HAWK-2B 1 47508U 21006CZ 25348.07429195 .00009524 00000+0 31321-3 0 9994 2 47508 97.2483 30.3645 0008678 136.6100 223.5826 15.31700215271133 HAWK-3B 1 48931U 21059BE 25348.07437497 .00027343 00000+0 40561-3 0 9992 2 48931 97.6695 164.3450 0005302 294.5388 65.5313 15.55189398248956 HAWK-3C 1 48948U 21059BX 25348.26716735 .00028723 00000+0 42565-3 0 9995 2 48948 97.6863 169.8644 0005907 295.5281 64.5361 15.55203851248986 HAWK-3A 1 48957U 21059CG 25348.07397429 .00027162 00000+0 40292-3 0 9990 2 48957 97.6791 167.0278 0005436 294.2389 65.8296 15.55191222248957 HAWK-5C 1 52754U 22057Y 25348.32486171 .00023032 00000+0 51150-3 0 9997 2 52754 97.6364 132.4496 0006012 28.6473 331.5104 15.43692093197756 HAWK-5B 1 52756U 22057AA 25348.32468978 .00022685 00000+0 50386-3 0 9997 2 52756 97.6347 130.8061 0006109 23.8801 336.2729 15.43690994197751 HAWK-5A 1 52757U 22057AB 25348.32442354 .00019296 00000+0 42923-3 0 9990 2 52757 97.6356 131.6294 0006309 26.1892 333.9674 15.43679603197754 HAWK-6B 1 55324U 23011A 25348.33124405 .00006878 00000+0 31501-3 0 9991 2 55324 40.5156 348.4745 0003109 208.4173 151.6466 15.20673826159672 HAWK-6C 1 55326U 23011C 25348.26496031 .00007016 00000+0 32118-3 0 9992 2 55326 40.4844 345.9558 0002653 198.4437 161.6276 15.20670187159672 HAWK-6A 1 55327U 23011D 25348.33065003 .00007054 00000+0 32289-3 0 9993 2 55327 40.5003 347.0649 0002423 205.2143 154.8548 15.20671820159683 HAWK-7A 1 56191U 23054P 25348.15932909 .00008421 00000+0 29736-3 0 9990 2 56191 97.2971 234.9043 0008021 351.9799 8.1312 15.29434830148780 HAWK-7B 1 56193U 23054R 25348.15922589 .00003547 00000+0 12702-3 0 9994 2 56193 97.2919 233.1005 0008206 12.7143 347.4302 15.29376273148787 HAWK-7C 1 56200U 23054Y 25348.15898589 .00007679 00000+0 27163-3 0 9992 2 56200 97.2969 233.9206 0008057 3.2325 356.8966 15.29405118148784